Regional Weather Roundup
Issued by NWS

Home | Current Version | Previous Version | Text Only | Print | Product List | Glossary On
Versions: 1 2 3 4 5 6 7 8 9 10 11 12 13 14 15 16 17 18 19 20 21 22 23 24 25 26 27 28 29 30 31 32 33 34 35 36 37 38 39 40 41 42 43 44 45 46 47 48 49 50
000
ASUS44 KEWX 231710
RWRTX
SOUTH TEXAS REGIONAL WEATHER ROUNDUP
NATIONAL WEATHER SERVICE AUSTIN/SAN ANTONIO TX
1200 PM CDT SAT AUG 23 2014

NOTE: "FAIR" INDICATED FEW OR NO CLOUDS BELOW 12,000 FEET WITH NO
SIGNIFICANT WEATHER AND/OR OBSTRUCTIONS TO VISIBILITY.

* - THESE STATIONS ARE NOT NWS OR FAA STATIONS...AND ARE NOT SUBJECT
    TO NWS AND FAA QUALITY CONTROL.

TXZ171-172-183>190-231800-
TEXAS HILL COUNTRY AND EDWARDS PLATEAU

CITY           SKY/WX    TMP DP  RH WIND       PRES   REMARKS
JUNCTION       SUNNY     87  60  40 S10       30.05F
*LLANO         SUNNY     91  64  40 SW13      30.06F HX  93
BURNET         SUNNY     88  67  49 S7G16     30.07S HX  91
*HORSESHOE BAY SUNNY     89  65  44 S7        30.04F HX  91
*KERRVILLE     MOSUNNY   84  69  60 S14       30.07F
*FREDERICKSBRG MOSUNNY   84  65  52 SW13      30.06F
*ROCKSPRINGS   SUNNY     84  66  54 S10G16    30.10F
*BOERNE STAGE  PTSUNNY   88  64  45 S10       30.07F
*CASTROVILLE   MOSUNNY   89  66  45 S8        30.04F HX  91
HONDO          MOSUNNY   87  69  54 S7G16     30.05F HX  91
*UVALDE        SUNNY     89  67  47 S12G17    30.02F HX  92
DEL RIO        SUNNY     87  68  52 SE14G21   29.98F HX  90
LAUGHLIN AFB   SUNNY     86  70  58 SE9       30.00F HX  90
CARRIZO SPRGS  MOSUNNY   90  68  48 SW8       29.99S HX  93
$$

TXZ173-191>194-202-209-217>225-228-231800-
CENTRAL AND SOUTH CENTRAL TEXAS

CITY           SKY/WX    TMP DP  RH WIND       PRES   REMARKS
GEORGETOWN     MOSUNNY   90  70  51 S10G17    30.04S HX  95
AUSTIN/BERGSTM MOSUNNY   89  70  53 S10       30.02F HX  94
AUSTIN/MABRY   SUNNY     91  70  49 VRB6      30.03F HX  96
*AUSTIN/EXEC   MOSUNNY   90  68  48 S7G17     30.03F HX  93
*LAGO VISTA    SUNNY     89  67  48 S9        30.06F HX  92
SAN MARCOS     MOSUNNY   90  70  51 S12       30.04F HX  95
NEW BRAUNFELS  PTSUNNY   91  69  48 S10       30.02F HX  96
RANDOLPH AFB   SUNNY     89  69  50 S9        30.04S HX  93
PT SAN ANTONIO MOSUNNY   91  70  49 S9        30.01F HX  96
SAN ANTONIO    MOSUNNY   89  70  53 S9        30.04S HX  94
STINSON FIELD  MOSUNNY   89  70  53 SW9       30.01F HX  94
*PLEASANTON    SUNNY     92  67  44 SE12      30.02S HX  95
*LA GRANGE     SUNNY     92  73  54 SW7       30.00F HX 101
*GIDDINGS      MOSUNNY   91  69  48 S6        30.06F HX  95
*GONZALES      SUNNY     93  72  50 S6        30.02S HX 100
$$

TXZ163>164-176>182-195>201-210>213-226-227-235-231800-
SOUTHEAST TEXAS

CITY           SKY/WX    TMP DP  RH WIND       PRES   REMARKS
COLLEGE STN    PTSUNNY   88  72  58 SW7       30.04S HX  94
*BRYAN         PTSUNNY   89  73  58 S7        30.04S HX  96
*CALDWELL      SUNNY     90  70  51 S9        30.06F HX  95
*CROCKETT      SUNNY     90  75  62 S7        30.07F HX 100
*BRENHAM       SUNNY     91  72  52 CALM      30.04S HX  98
HUNTSVILLE     MOSUNNY   89  71  55 S8        30.05S HX  95
CONROE         MOSUNNY   90  73  57 SW7       30.05S HX  98
HOUSTON BUSH   MOSUNNY   91  73  55 SW6       30.03S HX  99
HOUSTON HOBBY  PTSUNNY   92  72  51 VRB5      30.02F HX  99
*HOUSTON SW AP SUNNY     91  70  50 MISG      30.03F HX  96
PEARLAND       MOSUNNY   91  72  53 VRB3      30.04F HX  98
HOUSTON HOOKS  SUNNY     91  72  53 VRB6      30.03F HX  98
ELLINGTON FLD  PTSUNNY   82  77  83 SW5       30.04S HX  91
SUGAR LAND     MOSUNNY   91  73  55 SE8       30.03S HX 100
*HOUSTON EXEC  NOT AVBL
*CLEVELAND MUN MOSUNNY   88  76  67 SW3       30.05S HX  98
*WHARTON       SUNNY     92  67  43 S7        30.03S HX  96
$$

TXZ214>216-236>238-231800-
THE UPPER TEXAS COAST

CITY           SKY/WX    TMP DP  RH WIND       PRES   REMARKS
*ORANGE        PTSUNNY   88  73  60 MISG      30.05F HX  95
PORT ARTHUR    SUNNY     92  74  55 S6        30.03F HX 101
GALVESTON      MOSUNNY   89  78  70 SE8       30.04S HX 103
ANGLETON       SUNNY     90  75  61 S7        30.02F HX 100
*BAY CITY      SUNNY     94  70  45 S8        30.02S HX 100
PALACIOS       SUNNY     89  72  56 SW8       30.02S HX  96
$$

TXZ229>234-239>247-231800-
TEXAS COASTAL BEND AND RIO GRANDE PLAINS

CITY           SKY/WX    TMP DP  RH WIND       PRES   REMARKS
VICTORIA       SUNNY     96  69  41 S12       30.01F HX 102
*BEEVILLE      SUNNY     93  67  42 S12       30.00F HX  96
ROCKPORT       SUNNY     90  75  61 SE9       30.01R HX 100
*PORT ARANSAS  SUNNY     87  77  74 SE6       30.01S HX  98
*PORT LAVACA   PTSUNNY   91  73  54 SE8       30.01S HX  99
*INGLESIDE     SUNNY     94  67  41 SE12      30.00S HX  97
CORPUS CHRISTI MOSUNNY   93  70  46 S9        29.99F HX  99
CORPUS NAS     MOSUNNY   91  74  57 SE12      30.00S HX 100
*ROBSTOWN      SUNNY     94  67  40 S6G16     29.99F HX  98
ALICE          MOSUNNY   94  70  45 S9        29.98F HX 100
KINGSVILLE NAS MOSUNNY   95  75  52 SE13G20   29.99S HX 107
COTULLA        SUNNY     93  67  42 SE12G18   29.99F HX  96
*FAITH RANCH   SUNNY     90  68  48 S8G20     30.00S HX  93
LAREDO         SUNNY     95  69  42 S16       29.99F HX 100
$$

TXZ248>255-231800-
DEEP SOUTH TEXAS

CITY           SKY/WX    TMP DP  RH WIND       PRES   REMARKS
BROWNSVILLE    MOSUNNY   93  73  52 SE12      29.98S HX 102
PORT ISABEL    SUNNY     91  75  59 E15       29.98S HX 101
*SOUTH PADRE   SUNNY     90  81  74 SE7       29.99S HX 108
HARLINGEN      MOSUNNY   94  71  47 SE13G22   29.97S HX 101
*HEBBRONVILLE  SUNNY     92  67  43 S14       30.01S HX  94
MCALLEN        PTSUNNY   94  72  48 SE14G22   29.97F HX 102
*WESLACO       SUNNY     95  68  41 SE10G17   29.97F HX 100
FALFURRIAS     MOSUNNY   94  72  47 S12       29.98F HX 102
EDINBURG       MOSUNNY   94  70  45 SE10      29.98S HX 100
*ZAPATA        SUNNY     93  65  39 SE15G21   29.97S HX  95
$$

TXZ213>215-236>238-242>244-246-247-251-254-255-231800-
CMAN STATIONS

STATION/POSITION TIME  TEMP    WIND        PRES    WAVE
                       AIR SEA DIR/SP/G            HT/PER
                 (UTC) (F)     (DEG/KT/KT) (MB)    (FT/S)
SABINE PASS      1700   89 87  200/  4/  7 1017.3
SEA RIM ST PARK  1700   86     170/  5/  8 1017.4
NORTH JETTY/GLS  1700   86 86  190/  4/  6   N/A
EAGLE POINT      1700   86 88  140/  7/  9 1017.1
MORGANS POINT    1700   87     140/  3/  6 1017.0
MISSION/ARANSAS  1600   83     140/  4     1017.0
PORT O`CONNOR    1700          120/  7/  9   N/A
PORT ARANSAS     1700   83 83   90/  4/  5 1017.0
MALAQUITE BEACH  1700   82 77  100/  5/  6 1015.6
BAFFIN BAY       1700   85 83  110/  9/ 12 1015.9
PORT ISABEL      1700   85 81  120/ 10/ 13 1015.9
$$

GMZ080-GMZ150>470-231800-
OFFSHORE BUOY REPORTS

STATION/POSITION TIME  TEMP    WIND        PRES    WAVE
                       AIR SEA DIR/SP/G            HT/PER
                 (UTC) (F)     (DEG/KT/KT) (MB)    (FT/S)
90 E PT ARANSAS  1700   85 86  120/  6/  8 1016.9    2/ 6
35 NE PT MANSFLD 1700   85 85  140/  8/ 10 1015.5    2/ 6
200 E PT ISABEL  1700   85 87   90/  8/ 10 1016.2    2/ 5
$$



USA.gov is the U.S. government's official web portal to all federal, state and local government web resources and services.